QPF
0.04 0.04 0.04 0.04 0.04 0.04 0.05 0.06 0.07 0.07 0.06 0.06 0.04 0.03 0.03 0.04 0.03 0.04 0.04 0.03 0.01 0.01 0.01 0.01 0.01 0.02 0.03 0.04 0.03 0.03 0.04 0.03 0.04 0.04 0.04 0.05 0.06 0.07
0.04 0.04 0.04 0.04 0.04 0.04 0.05 0.05 0.06 0.06 0.06 0.04 0.04 0.03 0.02 0.02 0.03 0.03 0.04 0.04 0.03 0.01 0.01 0.01 0.01 0.02 0.02 0.03 0.03 0.02 0.03 0.03 0.03 0.02 0.03 0.04 0.05 0.07
0.03 0.03 0.03 0.04 0.04 0.04 0.05 0.05 0.06 0.06 0.05 0.04 0.04 0.03 0.03 0.03 0.03 0.03 0.03 0.03 0.03 0.01 0.01 0.01 0.01 0.01 0.02 0.04 0.05 0.04 0.03 0.03 0.03 0.02 0.02 0.03 0.05 0.06
0.03 0.04 0.04 0.04 0.05 0.04 0.04 0.04 0.05 0.06 0.06 0.05 0.05 0.05 0.04 0.03 0.04 0.04 0.04 0.03 0.02 0.02 0.01 0.00 0.00 0.00 0.01 0.03 0.05 0.04 0.03 0.02 0.03 0.03 0.03 0.03 0.04 0.06
0.03 0.04 0.04 0.05 0.05 0.05 0.06 0.05 0.04 0.05 0.07 0.07 0.05 0.06 0.05 0.04 0.04 0.04 0.04 0.04 0.03 0.03 0.02 0.01 0.01 0.01 0.01 0.01 0.02 0.01 0.02 0.03 0.03 0.05 0.06 0.06 0.07 0.08
0.02 0.03 0.03 0.03 0.04 0.05 0.05 0.07 0.07 0.06 0.07 0.08 0.06 0.07 0.06 0.05 0.06 0.05 0.04 0.04 0.03 0.03 0.03 0.03 0.03 0.02 0.02 0.02 0.02 0.02 0.02 0.04 0.05 0.05 0.08 0.10 0.11 0.11
0.02 0.02 0.02 0.03 0.04 0.05 0.05 0.07 0.09 0.08 0.07 0.07 0.07 0.08 0.07 0.07 0.07 0.06 0.06 0.05 0.05 0.04 0.05 0.04 0.04 0.03 0.02 0.01 0.01 0.01 0.02 0.03 0.05 0.05 0.06 0.10 0.13 0.13
0.01 0.01 0.01 0.02 0.03 0.03 0.04 0.05 0.06 0.07 0.07 0.07 0.07 0.07 0.08 0.08 0.08 0.08 0.07 0.07 0.06 0.04 0.05 0.04 0.05 0.05 0.03 0.01 0.02 0.01 0.02 0.02 0.03 0.03 0.03 0.04 0.07 0.09
0.02 0.01 0.01 0.02 0.03 0.03 0.03 0.03 0.03 0.04 0.06 0.07 0.08 0.08 0.07 0.07 0.08 0.08 0.07 0.06 0.05 0.03 0.04 0.04 0.04 0.05 0.04 0.02 0.02 0.02 0.03 0.04 0.04 0.05 0.04 0.04 0.04 0.05
0.02 0.02 0.02 0.02 0.03 0.05 0.05 0.04 0.04 0.04 0.05 0.06 0.06 0.07 0.06 0.05 0.05 0.06 0.07 0.07 0.05 0.04 0.04 0.03 0.03 0.04 0.05 0.06 0.05 0.04 0.04 0.05 0.06 0.06 0.06 0.05 0.05 0.05
0.02 0.02 0.02 0.02 0.04 0.04 0.05 0.05 0.05 0.04 0.06 0.07 0.07 0.06 0.06 0.05 0.04 0.04 0.06 0.06 0.06 0.06 0.05 0.04 0.03 0.03 0.03 0.04 0.04 0.04 0.03 0.03 0.04 0.05 0.06 0.05 0.03 0.03
0.02 0.02 0.02 0.03 0.03 0.03 0.04 0.05 0.05 0.05 0.06 0.06 0.08 0.07 0.07 0.06 0.05 0.04 0.03 0.04 0.05 0.05 0.04 0.03 0.03 0.03 0.03 0.03 0.03 0.04 0.04 0.03 0.02 0.03 0.04 0.05 0.04 0.02
0.02 0.02 0.03 0.03 0.02 0.02 0.02 0.04 0.06 0.08 0.08 0.06 0.07 0.09 0.10 0.09 0.06 0.05 0.04 0.04 0.04 0.04 0.03 0.02 0.02 0.03 0.03 0.03 0.03 0.04 0.05 0.04 0.04 0.03 0.03 0.04 0.04 0.03
0.02 0.03 0.03 0.02 0.02 0.02 0.02 0.03 0.04 0.06 0.08 0.08 0.08 0.09 0.09 0.09 0.08 0.07 0.05 0.04 0.04 0.04 0.04 0.03 0.03 0.04 0.04 0.04 0.04 0.04 0.04 0.04 0.05 0.05 0.05 0.05 0.05 0.04
0.02 0.01 0.01 0.01 0.01 0.01 0.02 0.03 0.04 0.05 0.07 0.08 0.10 0.09 0.07 0.06 0.06 0.07 0.05 0.05 0.05 0.04 0.03 0.03 0.03 0.03 0.04 0.04 0.05 0.04 0.03 0.04 0.04 0.04 0.04 0.05 0.04 0.04
0.01 0.01 0.01 0.01 0.01 0.02 0.02 0.03 0.05 0.05 0.07 0.08 0.08 0.08 0.07 0.07 0.06 0.06 0.05 0.05 0.05 0.03 0.02 0.02 0.03 0.03 0.03 0.04 0.04 0.04 0.03 0.03 0.03 0.04 0.03 0.03 0.04 0.04
0.01 0.01 0.01 0.01 0.01 0.02 0.03 0.04 0.06 0.05 0.06 0.07 0.06 0.05 0.05 0.06 0.06 0.05 0.05 0.05 0.04 0.03 0.03 0.02 0.03 0.03 0.03 0.04 0.04 0.03 0.02 0.02 0.02 0.03 0.04 0.04 0.03 0.03
0.01 0.02 0.03 0.02 0.03 0.03 0.03 0.04 0.05 0.06 0.06 0.07 0.06 0.05 0.04 0.04 0.04 0.04 0.04 0.04 0.04 0.03 0.03 0.02 0.02 0.03 0.04 0.04 0.04 0.03 0.02 0.01 0.02 0.02 0.04 0.04 0.03 0.02
0.02 0.03 0.04 0.03 0.03 0.03 0.03 0.04 0.05 0.05 0.04 0.05 0.05 0.05 0.04 0.03 0.03 0.03 0.03 0.03 0.03 0.03 0.02 0.03 0.03 0.03 0.03 0.02 0.02 0.02 0.02 0.02 0.02 0.02 0.04 0.04 0.03 0.03
0.03 0.04 0.04 0.04 0.03 0.03 0.04 0.04 0.04 0.04 0.03 0.03 0.03 0.04 0.04 0.04 0.03 0.02 0.02 0.02 0.02 0.02 0.02 0.03 0.04 0.05 0.04 0.03 0.01 0.01 0.01 0.03 0.03 0.03 0.03 0.04 0.04 0.04
0.03 0.03 0.04 0.04 0.04 0.03 0.03 0.03 0.03 0.04 0.03 0.03 0.02 0.03 0.03 0.03 0.03 0.02 0.02 0.02 0.01 0.01 0.02 0.03 0.04 0.07 0.06 0.04 0.03 0.02 0.02 0.03 0.03 0.04 0.04 0.04 0.04 0.04
0.03 0.03 0.03 0.04 0.03 0.03 0.03 0.02 0.02 0.03 0.03 0.03 0.02 0.02 0.02 0.02 0.02 0.02 0.02 0.01 0.01 0.01 0.02 0.02 0.03 0.04 0.06 0.06 0.05 0.03 0.03 0.03 0.03 0.04 0.04 0.05 0.05 0.04
0.04 0.03 0.03 0.03 0.03 0.03 0.03 0.02 0.02 0.02 0.03 0.02 0.02 0.02 0.02 0.02 0.02 0.02 0.02 0.02 0.02 0.01 0.01 0.02 0.03 0.03 0.04 0.05 0.05 0.05 0.05 0.05 0.04 0.03 0.03 0.03 0.04 0.04
MSLP
1015.32 1015.47 1015.69 1015.96 1016.24 1016.53 1016.80 1017.04 1017.26 1017.45 1017.64 1017.82 1018.01 1018.19 1018.35 1018.50 1018.61 1018.69 1018.72 1018.73 1018.71 1018.69 1018.68 1018.67 1018.68 1018.69 1018.69 1018.65 1018.55 1018.40 1018.18 1017.90 1017.58 1017.25 1016.93 1016.65 1016.43 1016.27
1015.89 1015.99 1016.13 1016.32 1016.53 1016.75 1016.98 1017.20 1017.41 1017.62 1017.82 1018.01 1018.20 1018.36 1018.50 1018.60 1018.66 1018.68 1018.67 1018.63 1018.60 1018.57 1018.57 1018.60 1018.65 1018.71 1018.76 1018.79 1018.76 1018.68 1018.53 1018.32 1018.07 1017.80 1017.53 1017.28 1017.07 1016.92
1016.43 1016.51 1016.61 1016.74 1016.89 1017.07 1017.26 1017.47 1017.68 1017.89 1018.10 1018.30 1018.48 1018.62 1018.73 1018.78 1018.78 1018.73 1018.66 1018.57 1018.49 1018.45 1018.43 1018.47 1018.54 1018.64 1018.74 1018.82 1018.86 1018.84 1018.75 1018.60 1018.41 1018.18 1017.95 1017.73 1017.53 1017.37
1016.89 1016.99 1017.08 1017.19 1017.32 1017.47 1017.65 1017.85 1018.06 1018.28 1018.49 1018.70 1018.86 1018.98 1019.05 1019.05 1018.99 1018.88 1018.73 1018.59 1018.45 1018.36 1018.32 1018.34 1018.42 1018.53 1018.65 1018.77 1018.85 1018.88 1018.84 1018.74 1018.59 1018.41 1018.21 1018.00 1017.81 1017.65
1017.28 1017.41 1017.54 1017.66 1017.79 1017.94 1018.11 1018.31 1018.52 1018.74 1018.96 1019.16 1019.31 1019.41 1019.44 1019.39 1019.28 1019.11 1018.90 1018.69 1018.50 1018.36 1018.27 1018.26 1018.31 1018.41 1018.54 1018.67 1018.77 1018.82 1018.82 1018.75 1018.64 1018.48 1018.30 1018.11 1017.92 1017.75
1017.59 1017.79 1017.96 1018.12 1018.27 1018.43 1018.61 1018.80 1019.01 1019.23 1019.44 1019.62 1019.77 1019.85 1019.85 1019.77 1019.62 1019.40 1019.15 1018.88 1018.64 1018.44 1018.31 1018.25 1018.26 1018.33 1018.43 1018.54 1018.64 1018.70 1018.70 1018.66 1018.56 1018.42 1018.25 1018.07 1017.89 1017.71
1017.85 1018.12 1018.35 1018.55 1018.72 1018.89 1019.07 1019.26 1019.45 1019.66 1019.85 1020.03 1020.15 1020.22 1020.21 1020.12 1019.94 1019.71 1019.42 1019.13 1018.84 1018.60 1018.42 1018.32 1018.28 1018.30 1018.36 1018.43 1018.50 1018.54 1018.54 1018.49 1018.39 1018.26 1018.09 1017.92 1017.74 1017.57
1018.07 1018.40 1018.68 1018.92 1019.11 1019.29 1019.45 1019.62 1019.79 1019.97 1020.13 1020.29 1020.40 1020.46 1020.45 1020.36 1020.20 1019.97 1019.69 1019.38 1019.09 1018.82 1018.61 1018.46 1018.37 1018.33 1018.34 1018.37 1018.39 1018.39 1018.36 1018.28 1018.17 1018.03 1017.86 1017.69 1017.52 1017.35
1018.24 1018.62 1018.94 1019.20 1019.40 1019.57 1019.71 1019.84 1019.97 1020.10 1020.23 1020.36 1020.46 1020.52 1020.52 1020.46 1020.33 1020.13 1019.89 1019.61 1019.33 1019.06 1018.84 1018.65 1018.53 1018.44 1018.39 1018.36 1018.33 1018.27 1018.20 1018.08 1017.94 1017.78 1017.60 1017.42 1017.25 1017.08
1018.34 1018.75 1019.09 1019.36 1019.56 1019.70 1019.80 1019.88 1019.96 1020.04 1020.13 1020.23 1020.32 1020.39 1020.42 1020.39 1020.32 1020.18 1020.00 1019.77 1019.53 1019.30 1019.08 1018.89 1018.73 1018.61 1018.51 1018.42 1018.33 1018.22 1018.09 1017.93 1017.75 1017.55 1017.35 1017.16 1016.97 1016.81
1018.34 1018.78 1019.13 1019.39 1019.57 1019.68 1019.74 1019.77 1019.79 1019.82 1019.87 1019.94 1020.02 1020.09 1020.16 1020.19 1020.18 1020.12 1020.01 1019.86 1019.68 1019.49 1019.30 1019.13 1018.97 1018.82 1018.69 1018.55 1018.41 1018.25 1018.06 1017.85 1017.62 1017.39 1017.16 1016.94 1016.75 1016.59
1018.23 1018.67 1019.02 1019.28 1019.44 1019.51 1019.53 1019.52 1019.49 1019.48 1019.49 1019.54 1019.62 1019.71 1019.81 1019.89 1019.95 1019.96 1019.94 1019.87 1019.76 1019.63 1019.49 1019.35 1019.20 1019.05 1018.90 1018.74 1018.56 1018.35 1018.12 1017.87 1017.60 1017.33 1017.06 1016.82 1016.61 1016.44
1017.98 1018.43 1018.78 1019.03 1019.18 1019.24 1019.23 1019.18 1019.13 1019.09 1019.08 1019.11 1019.19 1019.30 1019.43 1019.57 1019.68 1019.77 1019.81 1019.82 1019.79 1019.72 1019.64 1019.53 1019.41 1019.28 1019.13 1018.96 1018.76 1018.53 1018.27 1017.99 1017.68 1017.38 1017.09 1016.82 1016.59 1016.41
1017.61 1018.07 1018.43 1018.68 1018.82 1018.87 1018.85 1018.80 1018.74 1018.69 1018.68 1018.72 1018.80 1018.93 1019.09 1019.26 1019.43 1019.57 1019.67 1019.74 1019.77 1019.77 1019.73 1019.67 1019.59 1019.48 1019.35 1019.19 1019.00 1018.76 1018.49 1018.20 1017.88 1017.55 1017.24 1016.96 1016.71 1016.51
1017.16 1017.62 1017.98 1018.24 1018.39 1018.45 1018.44 1018.40 1018.35 1018.32 1018.33 1018.39 1018.49 1018.65 1018.83 1019.03 1019.22 1019.40 1019.54 1019.65 1019.73 1019.77 1019.77 1019.76 1019.71 1019.64 1019.54 1019.41 1019.23 1019.02 1018.76 1018.47 1018.15 1017.83 1017.51 1017.22 1016.96 1016.74
1016.66 1017.12 1017.48 1017.73 1017.89 1017.98 1018.00 1018.00 1017.99 1018.00 1018.04 1018.13 1018.27 1018.45 1018.65 1018.86 1019.07 1019.27 1019.43 1019.57 1019.67 1019.73 1019.77 1019.79 1019.78 1019.75 1019.68 1019.58 1019.44 1019.25 1019.03 1018.76 1018.47 1018.17 1017.86 1017.57 1017.31 1017.08
1016.16 1016.59 1016.93 1017.19 1017.36 1017.47 1017.54 1017.58 1017.63 1017.69 1017.79 1017.93 1018.11 1018.31 1018.54 1018.77 1018.98 1019.18 1019.35 1019.49 1019.60 1019.68 1019.73 1019.77 1019.79 1019.78 1019.75 1019.69 1019.58 1019.44 1019.25 1019.03 1018.78 1018.50 1018.22 1017.95 1017.70 1017.46
1015.67 1016.06 1016.37 1016.61 1016.79 1016.93 1017.04 1017.14 1017.25 1017.39 1017.55 1017.75 1017.97 1018.21 1018.46 1018.70 1018.92 1019.12 1019.28 1019.42 1019.52 1019.60 1019.66 1019.70 1019.73 1019.75 1019.74 1019.70 1019.64 1019.53 1019.39 1019.21 1019.01 1018.78 1018.54 1018.30 1018.06 1017.83
1015.19 1015.52 1015.79 1016.00 1016.18 1016.34 1016.49 1016.66 1016.84 1017.05 1017.29 1017.56 1017.83 1018.12 1018.39 1018.64 1018.87 1019.06 1019.22 1019.34 1019.44 1019.51 1019.56 1019.60 1019.63 1019.65 1019.65 1019.64 1019.59 1019.52 1019.41 1019.28 1019.12 1018.93 1018.74 1018.53 1018.33 1018.11
1014.71 1014.96 1015.18 1015.36 1015.53 1015.71 1015.91 1016.13 1016.39 1016.68 1016.99 1017.33 1017.66 1017.99 1018.29 1018.57 1018.81 1019.00 1019.15 1019.27 1019.35 1019.41 1019.45 1019.48 1019.49 1019.51 1019.50 1019.49 1019.45 1019.39 1019.31 1019.21 1019.08 1018.94 1018.79 1018.62 1018.44 1018.25
1014.17 1014.36 1014.52 1014.68 1014.85 1015.06 1015.30 1015.58 1015.91 1016.28 1016.67 1017.06 1017.46 1017.83 1018.17 1018.47 1018.72 1018.92 1019.07 1019.18 1019.26 1019.31 1019.33 1019.35 1019.35 1019.34 1019.32 1019.28 1019.24 1019.18 1019.10 1019.01 1018.91 1018.79 1018.67 1018.54 1018.39 1018.22
1013.56 1013.70 1013.83 1013.98 1014.16 1014.40 1014.69 1015.04 1015.44 1015.87 1016.33 1016.79 1017.24 1017.65 1018.03 1018.35 1018.61 1018.82 1018.98 1019.10 1019.17 1019.21 1019.23 1019.22 1019.20 1019.17 1019.12 1019.06 1018.99 1018.91 1018.82 1018.73 1018.62 1018.52 1018.41 1018.30 1018.17 1018.02
1012.85 1012.97 1013.10 1013.26 1013.48 1013.77 1014.12 1014.53 1015.00 1015.50 1016.02 1016.53 1017.02 1017.47 1017.87 1018.21 1018.49 1018.72 1018.89 1019.01 1019.08 1019.13 1019.14 1019.12 1019.08 1019.02 1018.95 1018.85 1018.75 1018.64 1018.52 1018.40 1018.29 1018.17 1018.06 1017.95 1017.82 1017.68
Thickness
5754 5753 5751 5751 5751 5750 5747 5742 5734 5727 5728 5734 5737 5741 5741 5739 5737 5734 5731 5729 5726 5724 5722 5720 5719 5717 5716 5715 5714 5713 5712 5711 5711 5710 5710 5710 5709 5709
5751 5749 5747 5747 5747 5746 5745 5742 5738 5731 5725 5731 5732 5736 5736 5735 5732 5730 5728 5725 5723 5721 5719 5717 5716 5714 5713 5712 5711 5710 5709 5708 5708 5708 5707 5707 5707 5707
5747 5745 5743 5742 5741 5740 5739 5737 5734 5731 5724 5727 5730 5731 5730 5728 5726 5725 5724 5722 5719 5717 5716 5714 5712 5711 5709 5708 5707 5706 5706 5705 5705 5704 5704 5704 5704 5703
5741 5739 5738 5738 5735 5734 5733 5731 5730 5728 5723 5719 5722 5723 5724 5723 5721 5720 5719 5718 5715 5713 5711 5709 5707 5706 5705 5704 5703 5702 5702 5702 5701 5700 5700 5700 5700 5700
5737 5734 5733 5731 5729 5728 5727 5725 5724 5724 5721 5717 5716 5718 5717 5717 5715 5714 5714 5712 5711 5708 5706 5704 5703 5701 5700 5699 5698 5697 5697 5697 5696 5696 5695 5695 5695 5695
5732 5730 5728 5726 5724 5722 5721 5719 5718 5716 5715 5712 5711 5711 5710 5710 5708 5705 5704 5704 5704 5704 5701 5700 5698 5696 5695 5693 5692 5691 5691 5690 5690 5690 5690 5690 5689 5689
5726 5725 5722 5720 5719 5717 5715 5712 5711 5708 5706 5704 5704 5703 5702 5700 5698 5698 5696 5697 5697 5697 5694 5694 5692 5690 5688 5687 5686 5685 5685 5684 5683 5683 5683 5683 5682 5682
5720 5719 5717 5715 5713 5711 5709 5707 5705 5702 5699 5697 5696 5694 5693 5693 5692 5691 5689 5687 5686 5691 5688 5686 5686 5684 5683 5681 5680 5679 5678 5677 5677 5676 5676 5676 5676 5675
5714 5712 5712 5711 5708 5705 5703 5701 5699 5697 5695 5692 5689 5688 5686 5687 5685 5684 5683 5681 5679 5682 5681 5679 5680 5678 5677 5676 5675 5673 5672 5670 5670 5669 5669 5669 5668 5668
5709 5707 5705 5703 5701 5698 5696 5694 5692 5691 5689 5687 5685 5684 5683 5682 5680 5679 5677 5676 5676 5676 5675 5670 5671 5670 5671 5669 5668 5667 5665 5664 5663 5662 5661 5661 5661 5661
5705 5703 5700 5697 5694 5692 5690 5687 5685 5684 5683 5682 5681 5679 5678 5676 5674 5672 5669 5667 5665 5666 5667 5664 5663 5662 5662 5661 5660 5659 5658 5657 5656 5654 5653 5653 5652 5652
5699 5697 5695 5692 5688 5685 5682 5680 5677 5676 5676 5675 5673 5672 5672 5670 5668 5665 5663 5659 5658 5657 5659 5657 5655 5654 5651 5654 5653 5651 5650 5649 5648 5647 5645 5645 5644 5643
5693 5691 5689 5684 5681 5679 5676 5674 5671 5669 5669 5668 5667 5666 5665 5663 5662 5660 5658 5655 5652 5651 5653 5650 5648 5646 5644 5643 5645 5645 5644 5643 5641 5640 5638 5638 5637 5636
5686 5685 5682 5678 5675 5673 5670 5668 5666 5664 5662 5661 5660 5658 5657 5655 5654 5653 5652 5651 5650 5647 5646 5644 5640 5639 5637 5635 5635 5637 5637 5637 5635 5634 5633 5631 5630 5629
5680 5678 5675 5672 5669 5667 5664 5662 5660 5658 5656 5654 5652 5651 5650 5648 5647 5645 5644 5643 5642 5641 5640 5637 5635 5633 5631 5629 5628 5628 5628 5629 5629 5628 5627 5625 5623 5622
5672 5670 5667 5665 5663 5661 5658 5656 5653 5651 5649 5647 5645 5644 5642 5640 5638 5636 5634 5633 5631 5631 5631 5630 5628 5626 5623 5623 5622 5621 5621 5621 5622 5621 5620 5618 5617 5616
5664 5663 5662 5660 5657 5655 5654 5651 5649 5646 5643 5641 5638 5636 5633 5631 5629 5628 5625 5624 5622 5621 5621 5621 5621 5619 5618 5616 5614 5614 5615 5614 5615 5614 5612 5611 5610 5609
5658 5658 5657 5655 5653 5651 5649 5646 5643 5640 5638 5635 5632 5629 5625 5623 5621 5619 5617 5616 5614 5614 5613 5613 5612 5610 5608 5609 5609 5607 5606 5606 5606 5605 5604 5602 5602 5603
5654 5654 5652 5650 5648 5646 5644 5641 5637 5634 5631 5627 5624 5621 5618 5615 5613 5611 5610 5608 5607 5606 5605 5605 5603 5601 5598 5597 5600 5600 5598 5597 5596 5596 5596 5596 5595 5596
5651 5650 5648 5646 5643 5641 5639 5635 5631 5628 5624 5620 5617 5614 5611 5608 5605 5603 5602 5601 5600 5599 5598 5598 5596 5594 5591 5590 5591 5592 5592 5590 5588 5587 5588 5588 5587 5588
5646 5645 5643 5641 5638 5635 5632 5629 5625 5621 5617 5613 5609 5606 5603 5601 5598 5597 5596 5594 5593 5592 5591 5590 5589 5589 5587 5585 5584 5585 5585 5585 5583 5581 5580 5579 5578 5578
5640 5638 5636 5634 5631 5628 5624 5621 5617 5613 5610 5606 5603 5600 5597 5595 5592 5591 5589 5587 5586 5586 5585 5584 5584 5583 5580 5578 5577 5577 5578 5577 5576 5575 5574 5573 5571 5571
5633 5631 5630 5627 5624 5621 5618 5615 5611 5607 5603 5600 5597 5595 5592 5589 5587 5585 5583 5582 5580 5579 5578 5577 5577 5576 5574 5572 5571 5570 5570 5569 5568 5567 5566 5566 5567 5567